| time (UTC) | temp F | wind direction | speed knots | gust knots | rain 1hr in | rain 24hr in | rain mn in | humidity % | barometer mb |
| 20260507121256 | 64 | 222 | 4.3 | 4.3 | 0.00 | 0.00 | 0.19 | 68 | 1012.4 |
| 20260507120128 | 63 | 192 | 3.5 | 4.3 | 0.02 | 0.00 | 0.19 | 76 | 1012.4 |
| 20260507115001 | 61 | 204 | 1.7 | 4.3 | 0.02 | 0.00 | 0.19 | 81 | 1012.6 |
| 20260507113834 | 59 | 295 | 1.7 | 3.5 | 0.02 | 0.00 | 0.19 | 94 | 1012.5 |
| 20260507112617 | 60 | 288 | 2.6 | 4.3 | 0.03 | 0.00 | 0.19 | 92 | 1012.5 |
| 20260507111436 | 61 | 282 | 2.6 | 2.6 | 0.03 | 0.00 | 0.19 | 89 | 1012.6 |
| 20260507110308 | 61 | 291 | 3.5 | 3.5 | 0.09 | 0.00 | 0.19 | 81 | 1012.7 |
| 20260507105141 | 62 | 315 | 1.7 | 3.5 | 0.11 | 0.00 | 0.19 | 83 | 1012.8 |
| 20260507104014 | 61 | 318 | 1.7 | 2.6 | 0.17 | 0.00 | 0.19 | 93 | 1012.9 |
| 20260507102757 | 58 | 290 | 1.7 | 4.3 | 0.19 | 0.00 | 0.19 | 92 | 1012.9 |
| 20260507101616 | 57 | 311 | 2.6 | 4.3 | 0.19 | 0.00 | 0.19 | 97 | 1013.0 |
| 20260507100449 | 57 | 306 | 3.5 | 3.5 | 0.14 | 0.00 | 0.14 | 96 | 1013.1 |
| 20260507095320 | 57 | 318 | 4.3 | 6.1 | 0.09 | 0.00 | 0.09 | 94 | 1013.1 |
| 20260507094152 | 59 | 306 | 7.0 | 7.8 | 0.05 | 0.00 | 0.05 | 89 | 1013.1 |
| 20260507092935 | 63 | 216 | 2.6 | 4.3 | 0.00 | 0.00 | 0.00 | 74 | 1013.0 |
| 20260507091758 | 64 | 121 | 7.0 | 7.8 | 0.00 | 0.00 | 0.00 | 72 | 1012.6 |
| 20260507090627 | 64 | 192 | 5.2 | 6.1 | 0.00 | 0.00 | 0.00 | 72 | 1012.7 |
| 20260507085459 | 62 | 138 | 3.5 | 7.0 | 0.00 | 0.00 | 0.00 | 77 | 1012.7 |
| 20260507084332 | 62 | 126 | 4.3 | 6.1 | 0.00 | 0.00 | 0.00 | 73 | 1012.7 |
| 20260507083115 | 62 | 168 | 3.5 | 6.1 | 0.00 | 0.00 | 0.00 | 76 | 1012.7 |
| 20260507081934 | 62 | 126 | 1.7 | 6.1 | 0.00 | 0.00 | 0.00 | 78 | 1012.6 |
| 20260507080807 | 60 | 168 | 3.5 | 7.8 | 0.00 | 0.00 | 0.00 | 80 | 1012.6 |
| 20260507075639 | 60 | 90 | 1.7 | 3.5 | 0.00 | 0.00 | 0.00 | 83 | 1012.6 |
| 20260507074512 | 60 | 192 | 1.7 | 1.7 | 0.00 | 0.00 | 0.00 | 83 | 1012.6 |
| 20260507073255 | 59 | 104 | 1.7 | 4.3 | 0.00 | 0.00 | 0.00 | 84 | 1012.6 |
| 20260507072114 | 60 | 120 | 1.7 | 6.1 | 0.00 | 0.00 | 0.00 | 80 | 1012.5 |
| 20260507070947 | 61 | 108 | 6.1 | 6.1 | 0.00 | 0.00 | 0.00 | 81 | 1012.4 |
| 20260507065819 | 61 | 96 | 3.5 | 4.3 | 0.00 | 0.00 | 0.00 | 77 | 1012.3 |
| 20260507064651 | 62 | 294 | 1.7 | 2.6 | 0.00 | 0.00 | 0.00 | 77 | 1012.3 |
| 20260507063435 | 59 | 258 | 1.7 | 1.7 | 0.00 | 0.00 | 0.00 | 82 | 1012.2 |
| 20260507062254 | 58 | 258 | 0.0 | 1.7 | 0.00 | 0.00 | 0.00 | 86 | 1012.1 |
| 20260507061127 | 57 | 258 | 0.0 | 1.7 | 0.00 | 0.00 | 0.00 | 92 | 1012.1 |
| 20260507055959 | 57 | 258 | 1.7 | 1.7 | 0.00 | 0.00 | 0.00 | 95 | 1012.1 |
| 20260507054831 | 57 | 180 | 2.6 | 2.6 | 0.00 | 0.00 | 0.00 | 90 | 1011.9 |
| 20260507053615 | 57 | 168 | 1.7 | 3.5 | 0.00 | 0.00 | 0.00 | 86 | 1011.7 |
| 20260507052434 | 56 | 18 | 2.6 | 4.3 | 0.00 | 0.00 | 0.00 | 90 | 1011.5 |
| 20260507051306 | 55 | 289 | 1.7 | 6.1 | 0.00 | 0.00 | 0.00 | 87 | 1011.4 |
| 20260507050138 | 55 | 296 | 1.7 | 7.0 | 0.00 | 0.00 | 0.00 | 91 | 1011.4 |
| 20260507045011 | 54 | 336 | 2.6 | 4.3 | 0.00 | 0.00 | 0.00 | 90 | 1011.1 |
| 20260507043754 | 53 | 294 | 1.7 | 5.2 | 0.00 | 0.00 | 0.00 | 91 | 1010.9 |
| 20260507042613 | 54 | 314 | 2.6 | 6.1 | 0.00 | 0.00 | 0.00 | 93 | 1011.0 |
| 20260507041446 | 54 | 348 | 4.3 | 6.1 | 0.00 | 0.00 | 0.00 | 92 | 1011.0 |
| 20260507040318 | 54 | 306 | 5.2 | 5.2 | 0.00 | 0.00 | 0.00 | 94 | 1011.0 |
| 20260507035151 | 54 | 348 | 2.6 | 5.2 | 0.00 | 0.00 | 0.00 | 94 | 1011.1 |
| 20260507033934 | 53 | 296 | 2.6 | 4.3 | 0.00 | 0.00 | 0.00 | 98 | 1011.0 |
| 20260507032754 | 53 | 289 | 4.3 | 4.3 | 0.00 | 0.00 | 0.00 | 95 | 1010.9 |
| 20260507031626 | 52 | 321 | 1.7 | 1.7 | 0.00 | 0.00 | 0.00 | 99 | 1010.9 |
| 20260507030500 | 53 | 318 | 1.7 | 2.6 | 0.00 | 0.00 | 0.00 | 99 | 1010.9 |
| 20260507025331 | 53 | 306 | 3.5 | 3.5 | 0.00 | 0.00 | 0.00 | 98 | 1010.9 |
| 20260507024115 | 53 | 306 | 1.7 | 3.5 | 0.00 | 0.00 | 0.00 | 99 | 1010.8 |
| 20260507022933 | 53 | 306 | 2.6 | 2.6 | 0.00 | 0.00 | 0.00 | 99 | 1010.9 |
| 20260507021805 | 54 | 314 | 3.5 | 3.5 | 0.00 | 0.00 | 0.00 | 99 | 1010.8 |
| 20260507020638 | 54 | 301 | 3.5 | 5.2 | 0.00 | 0.00 | 0.00 | 97 | 1010.9 |
| 20260507015510 | 54 | 318 | 3.5 | 3.5 | 0.00 | 0.00 | 0.00 | 98 | 1010.8 |
| 20260507014254 | 54 | 341 | 4.3 | 4.3 | 0.00 | 0.00 | 0.00 | 98 | 1010.9 |
| 20260507013112 | 55 | 322 | 3.5 | 4.3 | 0.00 | 0.00 | 0.00 | 97 | 1010.9 |
| 20260507011945 | 55 | 318 | 1.7 | 3.5 | 0.00 | 0.00 | 0.00 | 99 | 1010.8 |
| 20260507010817 | 55 | 306 | 2.6 | 3.5 | 0.00 | 0.00 | 0.00 | 99 | 1010.9 |
| 20260507005650 | 55 | 303 | 1.7 | 4.3 | 0.00 | 0.00 | 0.00 | 99 | 1010.9 |
| 20260507004433 | 55 | 300 | 1.7 | 2.6 | 0.00 | 0.00 | 0.00 | 99 | 1010.9 |
| 20260507003252 | 55 | 300 | 1.7 | 3.5 | 0.00 | 0.00 | 0.00 | 99 | 1010.9 |
| 20260507002125 | 55 | 318 | 2.6 | 2.6 | 0.00 | 0.00 | 0.00 | 99 | 1010.9 |
| 20260507000957 | 55 | 321 | 1.7 | 3.5 | 0.00 | 0.00 | 0.00 | 99 | 1011.0 |
| 20260506235830 | 55 | 318 | 1.7 | 3.5 | 0.00 | 0.00 | 0.00 | 99 | 1011.0 |
| 20260506234613 | 55 | 306 | 2.6 | 2.6 | 0.03 | 0.00 | 0.00 | 99 | 1011.0 |
| 20260506233433 | 55 | 306 | 2.6 | 2.6 | 0.03 | 0.00 | 0.00 | 99 | 1011.0 |
| 20260506232306 | 54 | 306 | 1.7 | 1.7 | 0.03 | 0.00 | 0.00 | 99 | 1011.1 |
| 20260506231137 | 54 | 306 | 1.7 | 2.6 | 0.05 | 0.00 | 0.00 | 99 | 1011.2 |
| 20260506230009 | 54 | 306 | 2.6 | 2.6 | 0.17 | 0.00 | 0.00 | 99 | 1011.2 |
| 20260506224753 | 54 | 306 | 1.7 | 3.5 | 0.39 | 0.00 | 2.27 | 99 | 1011.2 |
| 20260506223612 | 55 | 300 | 2.6 | 3.5 | 0.41 | 0.00 | 2.27 | 99 | 1011.2 |
| 20260506222444 | 55 | 300 | 2.6 | 2.6 | 0.41 | 0.00 | 2.27 | 99 | 1011.1 |
| 20260506221317 | 55 | 313 | 2.6 | 3.5 | 0.41 | 0.00 | 2.27 | 99 | 1011.1 |
| 20260506220149 | 55 | 313 | 3.5 | 3.5 | 0.28 | 0.00 | 2.15 | 99 | 1011.2 |
| 20260506214932 | 55 | 314 | 1.7 | 1.7 | 0.05 | 0.00 | 1.92 | 99 | 1011.1 |
| 20260506213752 | 55 | 311 | 1.7 | 4.3 | 0.00 | 0.00 | 1.87 | 98 | 1011.0 |
| 20260506212624 | 55 | 12 | 1.7 | 3.5 | 0.00 | 0.00 | 1.87 | 99 | 1011.0 |
| 20260506211457 | 55 | 264 | 1.7 | 1.7 | 0.00 | 0.00 | 1.87 | 99 | 1011.1 |
| 20260506210330 | 55 | 264 | 1.7 | 1.7 | 0.00 | 0.00 | 1.87 | 99 | 1011.1 |
| 20260506205113 | 55 | 264 | 1.7 | 2.6 | 0.00 | 0.00 | 1.87 | 99 | 1010.9 |
| 20260506203932 | 55 | 246 | 1.7 | 2.6 | 0.00 | 0.00 | 1.87 | 99 | 1011.0 |
| 20260506202804 | 55 | 96 | 1.7 | 4.3 | 0.00 | 0.00 | 1.87 | 99 | 1010.9 |
| 20260506201637 | 55 | 246 | 3.5 | 3.5 | 0.00 | 0.00 | 1.87 | 99 | 1010.8 |
| 20260506200509 | 55 | 291 | 2.6 | 3.5 | 0.00 | 0.00 | 1.87 | 99 | 1010.8 |
| 20260506195253 | 55 | 291 | 1.7 | 1.7 | 0.00 | 0.00 | 1.87 | 99 | 1010.7 |
| 20260506194112 | 55 | 291 | 1.7 | 2.6 | 0.00 | 0.00 | 1.87 | 99 | 1010.4 |
| 20260506192944 | 55 | 291 | 2.6 | 2.6 | 0.00 | 0.00 | 1.87 | 99 | 1010.3 |
| 20260506191817 | 55 | 291 | 1.7 | 1.7 | 0.00 | 0.00 | 1.87 | 99 | 1010.3 |
| 20260506190649 | 55 | 291 | 1.7 | 1.7 | 0.02 | 0.00 | 1.87 | 99 | 1010.3 |
| 20260506185433 | 55 | 290 | 1.7 | 1.7 | 0.02 | 0.00 | 1.87 | 99 | 1010.3 |
| 20260506184252 | 56 | 290 | 1.7 | 1.7 | 0.02 | 0.00 | 1.87 | 99 | 1010.2 |
| 20260506183124 | 56 | 278 | 1.7 | 2.6 | 0.02 | 0.00 | 1.87 | 99 | 1010.1 |
| 20260506181957 | 56 | 278 | 1.7 | 1.7 | 0.02 | 0.00 | 1.87 | 99 | 1010.1 |
| 20260506180829 | 56 | 278 | 1.7 | 1.7 | 0.00 | 0.00 | 1.86 | 99 | 1010.1 |
| 20260506175613 | 56 | 278 | 0.0 | 1.7 | 0.00 | 0.00 | 1.86 | 99 | 1010.1 |
| 20260506174431 | 56 | 278 | 1.7 | 1.7 | 0.00 | 0.00 | 1.86 | 99 | 1009.9 |
| 20260506173304 | 56 | 96 | 0.0 | 1.7 | 0.02 | 0.00 | 1.86 | 99 | 1009.8 |
| 20260506172137 | 56 | 96 | 1.7 | 1.7 | 0.02 | 0.00 | 1.86 | 99 | 1009.7 |
| 20260506171009 | 55 | 96 | 1.7 | 1.7 | 0.05 | 0.00 | 1.86 | 99 | 1009.6 |
| 20260506165752 | 56 | 96 | 2.6 | 2.6 | 0.08 | 0.00 | 1.86 | 99 | 1009.6 |
| 20260506164612 | 55 | 102 | 1.7 | 1.7 | 0.16 | 0.00 | 1.86 | 99 | 1009.6 |
| 20260506163444 | 55 | 102 | 0.0 | 1.7 | 0.27 | 0.00 | 1.86 | 99 | 1009.6 |
| 20260506162317 | 55 | 102 | 0.0 | 1.7 | 0.36 | 0.00 | 1.86 | 99 | 1009.4 |
| 20260506161149 | 55 | 102 | 0.0 | 3.5 | 0.41 | 0.00 | 1.84 | 99 | 1009.7 |
| 20260506155932 | 55 | 102 | 1.7 | 3.5 | 0.39 | 0.00 | 1.81 | 99 | 1009.6 |
| 20260506154752 | 56 | 24 | 1.7 | 1.7 | 0.33 | 0.00 | 1.75 | 99 | 1009.6 |
| 20260506153624 | 56 | 24 | 1.7 | 1.7 | 0.19 | 0.00 | 1.61 | 99 | 1009.6 |
| 20260506152457 | 56 | 315 | 0.0 | 1.7 | 0.14 | 0.00 | 1.54 | 99 | 1009.7 |
| 20260506151329 | 56 | 234 | 0.0 | 1.7 | 0.14 | 0.00 | 1.50 | 99 | 1009.7 |
| 20260506150113 | 56 | 234 | 0.0 | 1.7 | 0.13 | 0.00 | 1.43 | 99 | 1009.7 |
| 20260506144931 | 56 | 234 | 0.0 | 2.6 | 0.13 | 0.00 | 1.43 | 99 | 1009.8 |
| 20260506143804 | 56 | 234 | 1.7 | 4.3 | 0.13 | 0.00 | 1.43 | 99 | 1009.9 |
| 20260506142637 | 56 | 174 | 3.5 | 3.5 | 0.09 | 0.00 | 1.40 | 99 | 1010.0 |
| 20260506141509 | 57 | 90 | 2.6 | 4.3 | 0.09 | 0.00 | 1.37 | 99 | 1010.0 |
| 20260506140252 | 57 | 115 | 1.7 | 3.5 | 0.08 | 0.00 | 1.34 | 98 | 1010.2 |
| 20260506135112 | 57 | 54 | 0.0 | 2.6 | 0.08 | 0.00 | 1.31 | 98 | 1010.1 |
| 20260506133944 | 57 | 12 | 1.7 | 3.5 | 0.13 | 0.00 | 1.31 | 98 | 1010.2 |
| 20260506132817 | 56 | 303 | 1.7 | 3.5 | 0.17 | 0.00 | 1.31 | 97 | 1010.3 |
| 20260506131650 | 56 | 246 | 1.7 | 1.7 | 0.30 | 0.00 | 1.31 | 99 | 1010.5 |
| 20260506130433 | 56 | 210 | 1.7 | 3.5 | 0.38 | 0.00 | 1.31 | 99 | 1010.7 |
| 20260506125257 | 56 | 114 | 1.7 | 3.5 | 0.38 | 0.00 | 1.26 | 99 | 1010.7 |
| 20260506124112 | 56 | 318 | 1.7 | 3.5 | 0.38 | 0.00 | 1.23 | 99 | 1010.6 |
| 20260506122945 | 55 | 66 | 1.7 | 1.7 | 0.36 | 0.00 | 1.18 | 99 | 1010.5 |
| 20260506121817 | 55 | 78 | 0.0 | 1.7 | 0.35 | 0.00 | 1.02 | 99 | 1010.5 |